Temperature
7 5 5 5 6 7 6 6 6 6 6 6 5 4 4 4 4 4 4 4 5 5 5 5 5 5 5 5 5 5 5 5 5 5 6 6 6 5 5 5 5 5 5 5
5 5 6 6 6 6 6 5 5 5 5 5 4 4 4 4 4 4 4 4 4 5 5 5 4 4 5 5 5 5 5 5 5 5 5 5 5 5 5 5 5 5 5 5
6 6 6 6 5 6 5 5 5 5 5 4 4 4 3 3 4 4 4 4 4 4 4 4 4 4 4 4 4 4 4 4 4 4 4 4 4 4 4 4 4 4 4 4
5 5 6 5 5 5 5 5 5 5 4 3 4 3 3 3 2 3 3 3 4 4 4 4 4 4 4 4 4 4 4 3 3 3 3 3 3 3 3 3 3 3 3 3
4 5 5 5 5 5 4 4 4 4 3 3 2 2 3 2 3 3 3 3 3 3 3 3 3 3 3 3 3 3 3 3 3 3 3 3 3 3 3 2 2 3 3 3
4 5 5 4 4 4 4 3 3 2 2 3 2 2 3 2 3 3 2 3 3 3 3 3 3 3 3 3 3 3 3 3 2 2 2 2 2 2 2 2 2 2 2 2
4 4 4 4 4 4 3 3 2 3 1 2 2 2 2 2 2 2 2 2 3 3 3 3 2 2 2 2 2 2 2 2 2 2 2 2 2 2 2 2 1 2 2 2
4 4 4 4 4 3 3 3 3 3 2 2 1 1 2 2 2 2 2 2 2 2 2 2 2 2 2 2 2 1 1 1 1 1 1 1 1 1 1 1 1 1 1 1
3 3 3 3 3 3 2 2 2 1 0 1 1 1 1 1 1 1 1 1 2 2 2 2 2 1 1 1 1 1 1 1 1 1 1 1 1 1 1 1 1 1 1 1
2 2 2 3 3 2 3 1 0 1 2 2 2 1 2 2 1 0 -0 0 1 1 1 1 1 1 1 1 0 0 0 0 0 0 0 0 0 0 0 -0 -0 0 0 0
2 1 2 2 2 2 2 1 1 -0 0 1 1 3 2 1 1 -0 -0 0 1 1 1 1 1 0 0 0 0 0 -0 -0 -0 -0 -0 -1 -1 -0 -0 -0 -0 -0 -0 -0
1 0 0 1 1 1 1 1 0 1 0 -1 0 2 2 0 0 0 0 1 1 1 1 0 0 0 -0 -0 -0 -0 -1 -1 -1 -1 -1 -1 -1 -1 -1 -1 -1 -1 -1 -1
0 -0 1 2 1 0 1 0 -0 -1 -1 -2 -0 2 1 -0 -0 0 0 1 1 0 0 -0 -0 -0 -0 -1 -1 -1 -1 -1 -1 -1 -1 -1 -1 -1 -1 -1 -1 -1 -1 -1
1 -1 1 2 2 0 -0 -0 -1 -1 -1 -1 -0 1 1 0 -0 -0 0 0 0 -0 -0 -1 -1 -1 -1 -1 -1 -1 -2 -2 -2 -2 -2 -2 -2 -2 -2 -2 -2 -2 -2 -2
-0 -1 -1 -1 -1 -1 -1 -0 -1 -1 -0 -0 0 -0 1 0 -1 -1 -0 -0 -1 -1 -1 -1 -1 -1 -2 -2 -2 -2 -2 -2 -2 -2 -2 -2 -2 -2 -2 -2 -2 -2 -2 -2
-2 -2 -2 -2 -1 -2 -1 -1 -1 -1 -1 -1 -0 -0 -0 -0 -1 -1 -1 -1 -1 -1 -1 -1 -2 -2 -2 -2 -2 -2 -2 -2 -3 -3 -3 -3 -3 -3 -3 -3 -3 -3 -3 -3
-3 -2 -1 -1 -2 -1 -1 -1 -2 -2 -2 -2 -0 0 -1 -2 -2 -1 -1 -1 -1 -1 -2 -2 -2 -2 -2 -3 -3 -3 -3 -3 -3 -3 -3 -3 -3 -3 -3 -3 -3 -3 -3 -3
-3 -3 -3 -3 -2 -0 1 -2 -2 -2 -2 -3 -2 -2 -2 -2 -2 -1 -1 -1 -1 -1 -2 -2 -2 -2 -3 -3 -3 -3 -3 -3 -3 -3 -3 -3 -3 -3 -3 -4 -4 -4 -3 -3
-4 -3 -4 -3 -2 -2 -1 -2 -3 -3 -2 -3 -3 -3 -3 -3 -3 -2 -1 -1 -1 -2 -2 -2 -2 -3 -3 -3 -3 -3 -4 -4 -4 -4 -4 -4 -4 -4 -4 -4 -4 -4 -4 -4
-4 -4 -4 -4 -2 -1 0 -2 -3 -2 -2 -2 -3 -3 -3 -4 -3 -2 -1 -2 -2 -2 -3 -3 -3 -3 -3 -3 -4 -4 -4 -4 -4 -4 -4 -4 -4 -4 -4 -4 -4 -4 -4 -4
-4 -4 -4 -4 -3 -2 -2 -3 -3 -1 -1 -2 -3 -3 -4 -4 -3 -2 -2 -2 -3 -3 -3 -3 -3 -3 -4 -4 -4 -4 -4 -4 -4 -4 -4 -4 -4 -5 -5 -5 -5 -5 -5 -5
-3 -4 -4 -4 -3 -1 -3 -4 -3 -2 -2 -2 -2 -2 -3 -3 -3 -3 -3 -3 -3 -3 -4 -4 -4 -4 -4 -4 -4 -4 -4 -5 -5 -5 -5 -5 -5 -5 -5 -5 -5 -5 -5 -5
-5 -4 -4 -4 -2 -2 -3 -2 -2 -2 -2 -2 -2 -2 -2 -3 -3 -3 -3 -4 -4 -4 -4 -4 -4 -4 -4 -5 -5 -5 -5 -5 -5 -5 -5 -5 -5 -5 -5 -5 -5 -5 -5 -5
-6 -6 -5 -5 -4 -3 -2 -2 -2 -2 -2 -2 -2 -2 -3 -3 -3 -4 -4 -4 -4 -4 -4 -5 -5 -5 -5 -5 -5 -5 -5 -5 -5 -5 -5 -6 -6 -6 -6 -6 -6 -6 -5 -6
-5 -6 -6 -6 -5 -4 -2 -2 -1 -2 -2 -2 -3 -3 -3 -3 -4 -4 -4 -4 -4 -5 -5 -5 -5 -5 -5 -5 -5 -5 -5 -5 -6 -6 -6 -6 -6 -6 -6 -6 -6 -6 -6 -6
-6 -6 -5 -3 -3 -4 -2 -1 -2 -2 -3 -3 -3 -3 -3 -4 -4 -4 -4 -4 -5 -5 -5 -5 -5 -5 -5 -6 -6 -6 -6 -6 -6 -6 -6 -6 -6 -6 -6 -6 -6 -6 -6 -6
Wind_Speed
4 4 1 3 3 3 3 3 3 4 2 1 5 7 6 4 3 3 3 3 3 2 1 1 1 2 2 3 3 2 3 3 2 2 2 1 2 2 2 4 5 6 6 7
5 0 3 2 2 2 2 2 3 3 2 1 4 7 6 4 4 4 5 5 3 1 1 1 1 1 2 2 2 2 3 2 2 1 1 0 1 1 1 4 5 6 6 6
4 2 1 3 2 2 1 4 4 4 4 2 3 6 4 3 2 2 3 3 3 3 2 1 1 1 1 2 2 2 2 2 2 2 1 2 2 2 2 3 3 5 5 5
1 2 1 2 1 2 3 3 3 3 2 3 1 5 6 3 3 3 4 3 3 2 1 1 1 1 1 1 1 1 2 2 2 1 1 1 1 1 2 3 3 4 5 5
1 1 1 1 2 2 2 1 1 1 1 2 1 3 7 2 4 5 5 4 3 2 2 2 2 2 1 1 1 1 1 2 2 2 1 1 1 1 2 2 3 3 4 4
1 1 0 2 0 2 2 3 3 3 2 4 4 4 7 4 6 4 3 4 3 3 2 2 2 0 1 2 2 1 1 2 2 2 1 1 1 2 3 3 3 3 3 3
3 2 1 1 2 2 3 3 3 4 3 6 2 4 8 6 4 4 4 4 3 3 2 2 1 1 2 2 2 2 2 2 2 2 2 2 2 2 2 3 3 3 3 3
1 4 1 0 2 3 2 5 5 4 5 5 2 6 7 3 2 2 2 2 2 2 2 2 2 1 1 2 2 2 2 2 2 2 3 2 2 2 2 3 3 3 3 3
3 3 2 1 1 4 4 3 3 4 0 3 6 6 7 2 2 1 1 1 2 2 2 2 2 1 1 2 2 2 2 2 3 3 3 3 3 2 3 3 3 3 3 4
4 2 2 1 2 3 2 6 4 3 2 4 6 5 5 5 5 3 2 3 3 2 2 2 2 2 2 2 2 2 1 2 2 2 3 3 3 3 3 3 4 4 4 4
2 3 3 1 3 3 3 2 3 3 3 3 4 7 4 5 4 5 5 5 4 3 3 3 2 2 2 2 2 2 2 2 3 3 3 3 3 3 3 3 4 4 4 4
2 3 2 5 2 1 3 5 5 3 4 4 3 7 3 3 3 3 4 4 3 3 2 2 2 1 1 2 2 3 3 3 3 3 3 3 4 3 3 4 4 4 4 4
3 4 1 4 3 1 1 3 3 3 3 4 4 7 2 2 3 3 3 3 3 2 2 2 1 1 2 2 2 3 3 4 4 3 3 3 4 3 4 4 4 4 3 3
3 3 5 7 5 3 4 4 3 4 4 5 8 10 8 6 6 6 5 4 3 3 3 2 2 2 2 2 2 3 3 3 3 3 3 4 4 4 4 4 4 3 3 3
3 3 3 5 5 3 5 6 6 8 8 8 8 9 11 7 6 6 5 4 3 3 3 3 3 3 2 3 3 3 3 3 3 3 3 4 4 4 4 3 3 3 3 3
3 2 0 3 3 3 6 7 8 9 7 9 10 12 9 5 3 4 5 4 5 5 5 4 3 3 3 3 4 3 3 4 3 3 3 4 4 4 4 4 3 3 3 3
3 4 2 4 4 4 7 8 8 6 6 7 10 11 6 6 6 5 6 6 6 5 4 4 4 4 4 4 3 3 4 3 3 3 3 3 3 3 4 4 3 3 3 3
5 4 2 1 2 5 6 1 5 6 7 8 7 7 6 7 7 6 5 5 5 5 5 4 4 4 3 3 3 3 3 3 3 3 3 3 3 3 4 4 4 3 3 3
3 5 3 2 3 8 7 2 2 4 7 5 8 9 7 5 5 5 3 3 5 4 4 4 3 3 3 2 2 2 3 3 3 4 4 4 3 3 3 4 4 4 3 3
2 3 4 3 3 6 5 2 1 1 5 3 4 7 4 3 4 6 4 4 3 3 2 3 3 2 2 2 1 2 3 3 4 4 4 4 3 3 4 4 4 3 3 4
2 2 4 4 5 8 5 1 2 2 5 4 3 4 2 3 5 5 5 4 3 3 3 2 2 2 3 2 1 2 3 4 5 5 4 4 4 4 4 3 3 3 3 3
6 5 5 5 5 8 2 3 4 5 3 3 3 3 3 5 5 5 5 4 4 4 3 3 2 3 3 2 2 3 4 5 4 4 4 4 4 3 3 3 3 3 3 3
6 7 5 7 7 4 3 4 4 3 4 4 3 4 3 4 5 5 4 4 4 3 3 3 2 4 4 3 2 4 5 4 4 4 4 4 4 3 3 3 3 2 2 2
4 2 3 5 7 6 6 5 4 4 4 5 4 3 2 4 5 4 4 4 4 3 3 3 3 4 4 4 4 4 4 4 4 4 4 4 3 3 3 3 3 3 3 3
4 5 4 5 6 6 5 6 6 4 4 4 4 3 3 3 4 4 4 4 4 3 3 2 3 4 5 5 5 4 3 3 4 4 4 4 3 3 3 3 3 3 4 4
5 6 6 7 6 5 6 4 3 4 5 4 3 3 3 2 3 3 4 3 3 4 3 3 4 4 5 5 5 4 3 3 3 4 3 3 3 3 3 3 3 4 4 5
Wind_Direction
36 72 161 220 202 200 176 191 249 264 289 297 255 265 264 260 238 234 233 229 230 240 269 31 45 38 42 32 26 23 26 17 25 20 15 11 356 349 7 12 16 13 9 9
52 342 248 192 132 111 146 232 270 299 330 287 280 277 263 239 229 223 220 220 222 244 330 8 17 28 27 22 12 15 15 10 14 8 326 305 307 315 339 358 6 8 6 7
155 248 267 122 117 129 233 216 243 274 327 358 326 299 262 261 243 248 228 217 211 209 226 261 316 334 4 359 351 351 358 3 3 11 16 18 19 3 356 350 349 354 359 4
120 301 98 116 172 163 245 249 240 265 315 293 40 285 274 258 269 246 237 220 215 217 232 271 272 295 297 305 319 340 356 3 3 25 40 44 14 334 314 315 316 335 349 357
294 345 100 176 239 182 202 17 358 284 202 303 286 233 282 286 262 252 239 232 233 230 229 255 260 253 283 302 313 320 344 1 10 24 27 38 352 318 312 319 324 326 336 348
269 297 130 184 295 145 142 55 34 36 66 273 233 201 276 241 232 248 242 235 238 244 248 258 276 307 344 347 349 344 358 358 7 14 358 334 314 317 330 331 321 322 322 323
344 338 8 95 89 37 85 89 15 346 336 255 221 217 251 251 236 228 240 238 240 240 239 253 259 318 337 343 345 345 353 349 350 350 333 312 302 299 299 305 301 309 315 312
158 283 273 26 169 174 172 145 164 218 247 280 255 237 253 257 273 270 246 218 222 235 253 252 244 255 304 324 330 333 339 334 332 328 316 306 301 291 286 291 293 296 296 292
181 247 350 2 357 142 140 162 164 143 248 283 269 279 295 230 282 299 289 201 237 258 267 260 265 279 283 297 303 301 316 323 323 318 316 303 300 299 301 302 302 296 295 300
154 227 300 320 65 34 128 142 115 136 191 271 290 276 261 264 257 260 251 242 256 277 275 274 274 279 284 285 298 307 300 294 301 305 305 313 303 297 298 299 294 291 294 300
125 152 310 354 196 193 119 123 130 138 170 192 275 276 239 233 242 239 246 240 241 248 252 258 262 270 286 304 311 319 316 311 311 309 307 311 305 300 298 289 284 286 292 296
138 130 249 258 263 240 189 182 157 174 226 201 226 271 277 234 258 245 254 254 259 251 253 255 259 277 307 313 317 313 310 305 304 303 301 298 301 301 297 292 290 292 290 292
144 125 24 336 332 340 224 189 173 145 140 180 208 265 293 326 316 298 273 263 267 261 255 261 263 273 285 298 303 304 304 299 303 306 300 299 298 297 293 293 296 299 298 301
121 144 188 215 239 210 234 220 185 164 192 221 232 261 291 301 302 304 294 278 268 256 250 251 262 280 289 296 295 292 298 301 305 308 306 299 296 293 291 296 301 301 300 300
115 187 228 257 270 244 238 235 213 211 213 221 248 256 272 280 279 282 280 279 269 263 258 256 269 284 295 300 295 292 297 305 306 303 302 298 302 304 302 299 300 302 307 308
103 151 173 287 291 266 267 250 230 232 234 244 267 276 272 287 292 288 283 273 266 261 259 270 278 287 289 289 291 296 297 302 305 298 296 303 306 311 310 306 305 308 311 311
135 135 152 267 311 332 273 235 212 225 225 217 243 259 293 303 293 281 273 268 262 264 271 271 273 269 274 281 281 282 293 303 307 303 303 308 308 311 309 311 313 307 304 311
147 142 149 256 13 259 254 215 204 228 251 234 251 283 293 287 294 285 266 259 263 276 276 275 275 278 279 280 285 294 303 305 302 304 307 307 311 309 312 312 307 304 302 302
163 148 137 148 252 277 289 260 179 218 278 235 249 278 299 323 323 299 273 272 268 267 274 279 279 279 286 278 278 294 302 301 295 298 301 300 297 300 305 303 302 303 303 302
84 124 138 151 213 250 261 258 203 120 290 278 249 272 294 352 315 296 320 312 298 299 302 301 308 308 295 289 277 280 286 289 287 291 294 294 288 285 283 283 289 296 298 298
140 127 168 190 231 262 261 235 124 171 270 313 273 269 246 243 258 294 318 322 320 318 313 317 320 308 291 286 281 283 286 281 287 293 294 294 290 284 279 283 284 289 299 306
179 173 187 169 217 255 228 129 186 236 298 302 288 274 254 268 293 303 310 313 320 324 321 325 323 312 306 294 283 285 284 288 295 296 296 294 290 286 288 286 289 293 296 300
200 192 188 197 220 263 202 217 250 271 282 281 278 278 268 277 289 299 303 302 306 306 312 321 314 312 313 303 287 282 291 301 303 301 297 296 295 291 285 276 282 289 285 284
241 192 192 249 264 259 247 255 267 262 265 280 278 276 258 270 283 292 295 300 305 307 309 315 317 312 309 306 296 279 290 302 297 293 293 295 296 296 295 288 282 275 271 273
216 175 202 251 274 294 268 240 256 273 287 296 297 280 264 266 282 281 288 294 298 305 310 308 298 296 298 305 299 296 296 302 298 290 289 293 289 285 290 291 277 276 265 264
195 183 189 229 234 230 264 272 260 256 266 270 281 293 288 253 262 275 278 285 293 297 304 305 299 297 300 305 304 305 302 294 289 292 293 289 286 289 290 296 305 300 293 296
Height
1500 1505 1509 1509 1509 1508 1510 1513 1514 1512 1510 1511 1511 1509 1507 1506 1506 1506 1505 1506 1506 1506 1506 1506 1506 1507 1506 1506 1506 1505 1504 1504 1504 1503 1503 1502 1502 1501 1501 1500 1499 1498 1498 1497
1506 1509 1507 1507 1507 1509 1511 1514 1515 1513 1510 1511 1511 1509 1505 1504 1504 1503 1503 1503 1504 1504 1504 1504 1505 1505 1505 1504 1504 1503 1503 1502 1502 1501 1501 1500 1500 1499 1499 1498 1497 1497 1496 1495
1506 1508 1505 1506 1508 1510 1511 1514 1514 1513 1512 1511 1512 1508 1505 1502 1502 1502 1502 1502 1502 1502 1502 1502 1503 1503 1503 1502 1502 1502 1501 1500 1500 1500 1499 1498 1498 1497 1496 1495 1495 1494 1494 1493
1508 1507 1506 1507 1509 1509 1511 1511 1511 1512 1515 1518 1516 1516 1505 1502 1502 1500 1500 1500 1500 1500 1501 1501 1501 1501 1500 1500 1500 1500 1499 1499 1498 1497 1497 1496 1495 1494 1493 1493 1492 1492 1492 1491
1508 1507 1507 1508 1509 1508 1511 1511 1512 1513 1516 1520 1519 1520 1507 1503 1500 1498 1497 1497 1498 1498 1499 1499 1499 1499 1499 1498 1498 1497 1497 1496 1496 1495 1495 1494 1493 1492 1491 1491 1490 1490 1489 1488
1508 1507 1507 1507 1508 1508 1510 1513 1515 1519 1521 1521 1518 1520 1509 1502 1497 1495 1494 1495 1495 1496 1496 1497 1497 1497 1496 1496 1496 1495 1494 1494 1494 1493 1493 1492 1491 1490 1489 1488 1487 1487 1486 1485
1509 1508 1507 1507 1509 1510 1511 1518 1525 1523 1529 1522 1517 1516 1506 1495 1493 1492 1492 1492 1493 1494 1494 1494 1494 1494 1494 1494 1493 1493 1492 1491 1491 1491 1490 1489 1488 1487 1487 1486 1485 1484 1483 1482
1512 1512 1508 1507 1508 1510 1513 1515 1523 1523 1525 1521 1517 1514 1499 1492 1491 1490 1490 1491 1491 1492 1492 1492 1492 1492 1492 1492 1491 1490 1490 1489 1488 1488 1487 1487 1486 1485 1484 1483 1482 1481 1480 1479
1512 1512 1508 1508 1507 1508 1512 1516 1518 1526 1531 1528 1516 1510 1497 1491 1490 1490 1490 1490 1490 1490 1490 1490 1491 1491 1490 1490 1489 1489 1488 1487 1486 1485 1485 1484 1483 1482 1481 1480 1479 1478 1478 1477
1510 1515 1510 1509 1508 1509 1510 1514 1522 1525 1524 1520 1513 1509 1499 1491 1489 1489 1489 1488 1488 1488 1488 1488 1489 1489 1489 1488 1487 1486 1485 1484 1484 1483 1482 1481 1480 1479 1478 1477 1476 1475 1474 1474
1509 1515 1514 1512 1511 1510 1513 1515 1517 1523 1523 1522 1520 1503 1491 1488 1487 1487 1487 1486 1486 1486 1486 1486 1486 1487 1486 1486 1485 1484 1483 1482 1481 1480 1479 1478 1477 1476 1475 1474 1473 1472 1471 1470
1509 1515 1519 1514 1510 1509 1510 1511 1515 1518 1521 1525 1521 1504 1487 1486 1485 1485 1485 1485 1485 1485 1485 1485 1485 1484 1484 1483 1482 1481 1480 1479 1478 1477 1476 1475 1474 1473 1472 1471 1470 1469 1468 1467
1508 1514 1518 1512 1514 1513 1511 1510 1512 1516 1521 1525 1520 1500 1486 1485 1484 1483 1483 1483 1483 1483 1482 1482 1482 1482 1481 1480 1479 1478 1477 1476 1475 1474 1473 1472 1471 1470 1469 1468 1467 1466 1465 1464
1505 1512 1513 1510 1505 1508 1510 1509 1512 1513 1516 1516 1509 1495 1487 1485 1484 1482 1481 1481 1481 1480 1480 1480 1479 1479 1478 1478 1477 1476 1475 1474 1473 1471 1470 1469 1468 1467 1466 1465 1464 1463 1463 1462
1505 1511 1512 1510 1508 1508 1507 1506 1508 1508 1505 1505 1497 1494 1485 1483 1482 1481 1480 1479 1478 1478 1478 1477 1477 1476 1475 1475 1474 1473 1472 1471 1470 1469 1467 1466 1465 1464 1464 1463 1462 1461 1460 1459
1506 1510 1513 1510 1507 1508 1506 1503 1503 1502 1500 1498 1494 1489 1481 1481 1480 1479 1478 1476 1476 1475 1475 1475 1474 1473 1473 1472 1471 1470 1469 1468 1467 1466 1465 1464 1463 1462 1461 1460 1459 1458 1457 1456
1507 1510 1511 1510 1511 1505 1501 1496 1497 1496 1494 1493 1490 1483 1479 1479 1477 1476 1475 1474 1473 1472 1472 1472 1471 1471 1470 1469 1469 1467 1466 1465 1464 1463 1462 1461 1460 1459 1458 1457 1456 1455 1454 1454
1507 1509 1513 1514 1511 1506 1490 1489 1489 1489 1487 1487 1483 1480 1478 1477 1475 1474 1473 1472 1470 1470 1470 1469 1469 1468 1467 1467 1466 1465 1464 1463 1462 1460 1459 1458 1457 1456 1455 1454 1454 1453 1452 1451
1503 1508 1514 1516 1513 1502 1490 1488 1488 1489 1484 1481 1480 1477 1476 1475 1473 1471 1470 1470 1469 1468 1468 1467 1466 1466 1465 1464 1463 1462 1461 1460 1459 1458 1457 1456 1455 1454 1453 1452 1451 1450 1450 1449
1504 1505 1512 1515 1509 1501 1486 1485 1484 1486 1483 1476 1476 1475 1475 1474 1475 1470 1468 1467 1466 1466 1465 1464 1464 1463 1462 1462 1461 1460 1458 1457 1456 1455 1454 1453 1452 1451 1450 1450 1449 1448 1447 1446
1505 1508 1510 1511 1509 1496 1486 1484 1485 1487 1481 1475 1473 1473 1473 1473 1472 1469 1466 1465 1464 1463 1463 1462 1462 1461 1460 1459 1458 1457 1456 1455 1454 1453 1452 1451 1450 1449 1448 1447 1447 1446 1445 1444
1499 1503 1506 1508 1506 1493 1483 1483 1484 1480 1476 1474 1472 1472 1471 1470 1468 1466 1465 1463 1462 1461 1461 1460 1459 1458 1457 1456 1455 1454 1453 1452 1451 1450 1449 1448 1447 1446 1445 1445 1444 1443 1442 1441
1495 1493 1494 1494 1488 1481 1479 1478 1477 1476 1474 1473 1471 1470 1469 1467 1466 1464 1463 1462 1461 1460 1459 1458 1457 1456 1455 1454 1453 1452 1450 1449 1448 1447 1446 1445 1444 1444 1443 1442 1441 1440 1440 1439
1490 1489 1490 1489 1481 1477 1476 1475 1474 1474 1472 1471 1470 1468 1467 1465 1464 1462 1461 1460 1459 1458 1457 1456 1455 1454 1453 1452 1451 1449 1448 1446 1445 1444 1443 1442 1441 1440 1440 1439 1438 1437 1437 1436
1483 1486 1487 1484 1478 1474 1472 1472 1471 1470 1469 1468 1467 1466 1464 1463 1462 1461 1459 1458 1457 1456 1455 1454 1453 1452 1450 1449 1448 1446 1445 1444 1442 1441 1440 1439 1439 1438 1437 1436 1436 1435 1434 1434
1478 1479 1480 1476 1472 1472 1469 1468 1468 1467 1466 1465 1464 1462 1461 1461 1459 1458 1457 1456 1455 1454 1453 1452 1451 1449 1448 1447 1445 1444 1442 1441 1440 1439 1438 1437 1436 1435 1434 1433 1433 1432 1432 1432